Regional Weather Roundup
Issued by NWS

Home | Current Version | Previous Version | Graphics & Text | Print | Product List | Glossary On
Versions: 1 2 3 4 5 6 7 8 9 10 11 12 13 14 15 16 17 18 19 20 21 22 23 24 25 26 27 28 29 30 31 32 33 34 35 36 37 38 39 40 41 42 43 44 45 46 47 48 49 50
000
ASUS43 KBIS 160102
RWRND

NORTH DAKOTA REGIONAL WEATHER ROUNDUP
NATIONAL WEATHER SERVICE BISMARCK ND
700 PM CST FRI DEC 15 2017

NOTE: "FAIR" INDICATES FEW OR NO CLOUDS BELOW 12,000 FEET WITH NO
SIGNIFICANT WEATHER AND/OR OBSTRUCTIONS TO VISIBILITY.


NDZ001>003-009>011-017-160200-
NORTHWEST NORTH DAKOTA

CITY           SKY/WX    TMP DP  RH WIND       PRES   REMARKS
WILLISTON      MOCLDY    41  27  56 W7        29.57R
MINOT          CLOUDY    43  27  53 W14       29.49S
MINOT AFB      CLOUDY    40  27  60 NW9       29.48S
$$

NDZ018>021-031>035-040>046-160200-
SOUTHWEST NORTH DAKOTA

CITY           SKY/WX    TMP DP  RH WIND       PRES   REMARKS
BISMARCK       CLOUDY    41  25  53 W7        29.56R
DICKINSON      CLOUDY    35  22  58 W8        29.55F
GARRISON         N/A     41  24  51 W13       29.51S
HETTINGER ARPT CLOUDY    38  20  48 W14       29.60F
$$

NDZ004>008-012>016-024-026-027-054-160200-
NORTHEAST NORTH DAKOTA

CITY           SKY/WX    TMP DP  RH WIND       PRES   REMARKS
GRAND FORKS    LGT SNOW  23  21  92 SE10      29.63F FOG     WCI  12
GRND FRKS AFB  FLURRIES  23  22  94 SE9       29.62F WCI  13
DEVILS LAKE    CLOUDY    27  26  96 SE12      29.54S WCI  17
$$

NDZ022-023-025-028>030-036>039-047>053-160200-
SOUTHEAST NORTH DAKOTA

CITY           SKY/WX    TMP DP  RH WIND       PRES   REMARKS
FARGO          LGT SNOW  29  26  89 SE10      29.63F FOG     WCI  20
JAMESTOWN      CLOUDY    33  30  88 S8        29.53F
$$





USA.gov is the U.S. government's official web portal to all federal, state and local government web resources and services.